Time,TemperatureF,DewpointF,PressureIn,WindDirection,WindDirectionDegrees,WindSpeedMPH,WindSpeedGustMPH,Humidity,HourlyPrecipIn,Conditions,Clouds,dailyrainin,SoftwareType,DateUTC
2013-10-15 00:03:00,49.0,33.0,-100.00,NNE,15,4.0,9.0,54,-99.99,,,-99.99,,2013-10-15 05:03:00,
2013-10-15 00:10:00,49.0,35.0,-100.00,NNE,25,2.0,6.0,59,-99.99,,,-99.99,,2013-10-15 05:10:00,
2013-10-15 00:42:00,49.0,35.0,-100.00,NNE,25,2.0,6.0,59,-99.99,,,-99.99,,2013-10-15 05:42:00,
2013-10-15 00:53:00,49.0,35.0,-100.00,NNE,25,2.0,6.0,59,-99.99,,,-99.99,,2013-10-15 05:53:00,
2013-10-15 01:02:00,49.0,35.0,-100.00,NNE,25,2.0,6.0,59,-99.99,,,-99.99,,2013-10-15 06:02:00,
2013-10-15 01:10:00,49.0,39.0,-100.00,ENE,65,1.0,7.0,70,-99.99,,,-99.99,,2013-10-15 06:10:00,
2013-10-15 01:43:00,49.0,39.0,-100.00,ENE,65,1.0,7.0,70,-99.99,,,-99.99,,2013-10-15 06:43:00,
2013-10-15 01:52:00,49.0,39.0,-100.00,ENE,65,1.0,7.0,70,-99.99,,,-99.99,,2013-10-15 06:52:00,
2013-10-15 02:02:00,49.0,39.0,-100.00,ENE,65,1.0,7.0,70,-99.99,,,-99.99,,2013-10-15 07:02:00,
2013-10-15 02:10:00,47.0,42.0,-100.00,ESE,105,4.0,8.0,81,-99.99,,,-99.99,,2013-10-15 07:10:00,
2013-10-15 02:42:00,47.0,42.0,-100.00,ESE,105,4.0,8.0,81,-99.99,,,-99.99,,2013-10-15 07:42:00,
2013-10-15 02:53:00,47.0,42.0,-100.00,ESE,105,4.0,8.0,81,-99.99,,,-99.99,,2013-10-15 07:53:00,
2013-10-15 03:02:00,47.0,42.0,-100.00,ESE,105,4.0,8.0,81,-99.99,,,-99.99,,2013-10-15 08:02:00,
2013-10-15 04:11:00,45.0,44.0,-100.00,NE,35,3.0,8.0,97,-99.99,,,-99.99,,2013-10-15 09:11:00,
2013-10-15 04:43:00,45.0,44.0,-100.00,NE,35,3.0,8.0,97,-99.99,,,-99.99,,2013-10-15 09:43:00,
2013-10-15 04:53:00,45.0,44.0,-100.00,NE,35,3.0,8.0,97,-99.99,,,-99.99,,2013-10-15 09:53:00,
2013-10-15 05:03:00,45.0,44.0,-100.00,NE,35,3.0,8.0,97,-99.99,,,-99.99,,2013-10-15 10:03:00,
2013-10-15 05:43:00,45.0,45.0,-100.00,ENE,75,4.0,9.0,99,-99.99,,,-99.99,,2013-10-15 10:43:00,
2013-10-15 05:53:00,45.0,45.0,-100.00,ENE,75,4.0,9.0,99,-99.99,,,-99.99,,2013-10-15 10:53:00,
2013-10-15 06:02:00,45.0,45.0,-100.00,ENE,75,4.0,9.0,99,-99.99,,,-99.99,,2013-10-15 11:02:00,
2013-10-15 06:10:00,45.0,45.0,-100.00,NE,35,3.0,10.0,99,-99.99,,,-99.99,,2013-10-15 11:10:00,
2013-10-15 06:42:00,45.0,45.0,-100.00,NE,35,3.0,10.0,99,-99.99,,,-99.99,,2013-10-15 11:42:00,
2013-10-15 06:53:00,45.0,45.0,-100.00,NE,35,3.0,10.0,99,-99.99,,,-99.99,,2013-10-15 11:53:00,
2013-10-15 07:01:00,45.0,45.0,-100.00,NE,35,3.0,10.0,99,-99.99,,,-99.99,,2013-10-15 12:01:00,
2013-10-15 07:10:00,46.0,46.0,-100.00,North,0,2.0,8.0,99,-99.99,,,-99.99,,2013-10-15 12:10:00,
2013-10-15 07:42:00,46.0,46.0,-100.00,North,0,2.0,8.0,99,-99.99,,,-99.99,,2013-10-15 12:42:00,
2013-10-15 07:52:00,46.0,46.0,-100.00,North,0,2.0,8.0,99,-99.99,,,-99.99,,2013-10-15 12:52:00,
2013-10-15 08:02:00,46.0,46.0,-100.00,North,0,2.0,8.0,99,-99.99,,,-99.99,,2013-10-15 13:02:00,
2013-10-15 08:10:00,47.0,47.0,-100.00,NNE,30,3.0,6.0,99,-99.99,,,-99.99,,2013-10-15 13:10:00,
2013-10-15 08:42:00,47.0,47.0,-100.00,NNE,30,3.0,6.0,99,-99.99,,,-99.99,,2013-10-15 13:42:00,
2013-10-15 08:52:00,47.0,47.0,-100.00,NNE,30,3.0,6.0,99,-99.99,,,-99.99,,2013-10-15 13:52:00,
2013-10-15 09:02:00,47.0,47.0,-100.00,NNE,30,3.0,6.0,99,-99.99,,,-99.99,,2013-10-15 14:02:00,
2013-10-15 09:42:00,48.0,48.0,-100.00,East,85,4.0,10.0,99,-99.99,,,-99.99,,2013-10-15 14:42:00,
2013-10-15 09:52:00,48.0,48.0,-100.00,East,85,4.0,10.0,99,-99.99,,,-99.99,,2013-10-15 14:52:00,
2013-10-15 10:01:00,48.0,48.0,-100.00,East,85,4.0,10.0,99,-99.99,,,-99.99,,2013-10-15 15:01:00,
2013-10-15 10:11:00,48.0,48.0,-100.00,East,85,4.0,10.0,99,-99.99,,,-99.99,,2013-10-15 15:11:00,
2013-10-15 10:44:00,48.0,48.0,-100.00,North,5,1.0,15.0,99,-99.99,,,-99.99,,2013-10-15 15:44:00,
2013-10-15 10:53:00,48.0,48.0,-100.00,North,5,1.0,15.0,99,-99.99,,,-99.99,,2013-10-15 15:53:00,
2013-10-15 11:03:00,48.0,48.0,-100.00,North,5,1.0,15.0,99,-99.99,,,-99.99,,2013-10-15 16:03:00,
2013-10-15 11:10:00,49.0,49.0,-100.00,NNE,25,2.0,6.0,99,-99.99,,,-99.99,,2013-10-15 16:10:00,
2013-10-15 11:43:00,49.0,49.0,-100.00,NNE,25,2.0,6.0,99,-99.99,,,-99.99,,2013-10-15 16:43:00,
2013-10-15 11:53:00,49.0,49.0,-100.00,NNE,25,2.0,6.0,99,-99.99,,,-99.99,,2013-10-15 16:53:00,
2013-10-15 12:02:00,49.0,49.0,-100.00,NNE,25,2.0,6.0,99,-99.99,,,-99.99,,2013-10-15 17:02:00,
2013-10-15 12:11:00,49.0,48.0,-100.00,North,0,4.0,7.0,99,-99.99,,,-99.99,,2013-10-15 17:11:00,
2013-10-15 12:42:00,49.0,48.0,-100.00,North,0,4.0,7.0,99,-99.99,,,-99.99,,2013-10-15 17:42:00,
2013-10-15 12:53:00,49.0,48.0,-100.00,North,0,4.0,7.0,99,-99.99,,,-99.99,,2013-10-15 17:53:00,
2013-10-15 13:02:00,49.0,48.0,-100.00,North,0,4.0,7.0,99,-99.99,,,-99.99,,2013-10-15 18:02:00,
2013-10-15 13:10:00,48.0,48.0,-100.00,NNE,30,2.0,8.0,99,-99.99,,,-99.99,,2013-10-15 18:10:00,
2013-10-15 13:42:00,48.0,48.0,-100.00,NNE,30,2.0,8.0,99,-99.99,,,-99.99,,2013-10-15 18:42:00,
2013-10-15 13:52:00,48.0,48.0,-100.00,NNE,30,2.0,8.0,99,-99.99,,,-99.99,,2013-10-15 18:52:00,
2013-10-15 14:01:00,48.0,48.0,-100.00,NNE,30,2.0,8.0,99,-99.99,,,-99.99,,2013-10-15 19:01:00,
2013-10-15 14:42:00,48.0,48.0,-100.00,NNE,20,4.0,9.0,99,-99.99,,,-99.99,,2013-10-15 19:42:00,
2013-10-15 14:52:00,48.0,48.0,-100.00,NNE,20,4.0,9.0,99,-99.99,,,-99.99,,2013-10-15 19:52:00,
2013-10-15 15:03:00,48.0,48.0,-100.00,NNE,20,4.0,9.0,99,-99.99,,,-99.99,,2013-10-15 20:03:00,
2013-10-15 15:10:00,49.0,49.0,-100.00,NNE,25,3.0,8.0,99,-99.99,,,-99.99,,2013-10-15 20:10:00,
2013-10-15 15:42:00,49.0,49.0,-100.00,NNE,25,3.0,8.0,99,-99.99,,,-99.99,,2013-10-15 20:42:00,
2013-10-15 15:52:00,49.0,49.0,-100.00,NNE,25,3.0,8.0,99,-99.99,,,-99.99,,2013-10-15 20:52:00,
2013-10-15 16:02:00,49.0,49.0,-100.00,NNE,25,3.0,8.0,99,-99.99,,,-99.99,,2013-10-15 21:02:00,
2013-10-15 16:44:00,49.0,49.0,-100.00,NNE,20,4.0,9.0,99,-99.99,,,-99.99,,2013-10-15 21:44:00,
2013-10-15 16:54:00,49.0,49.0,-100.00,NNE,20,4.0,9.0,99,-99.99,,,-99.99,,2013-10-15 21:54:00,
2013-10-15 17:04:00,49.0,49.0,-100.00,NNE,20,4.0,9.0,99,-99.99,,,-99.99,,2013-10-15 22:04:00,
2013-10-15 17:10:00,49.0,49.0,-100.00,NNE,20,6.0,15.0,99,-99.99,,,-99.99,,2013-10-15 22:10:00,
2013-10-15 17:43:00,49.0,49.0,-100.00,NNE,20,6.0,15.0,99,-99.99,,,-99.99,,2013-10-15 22:43:00,
2013-10-15 17:53:00,49.0,49.0,-100.00,NNE,20,6.0,15.0,99,-99.99,,,-99.99,,2013-10-15 22:53:00,
2013-10-15 18:03:00,49.0,49.0,-100.00,NNE,20,6.0,15.0,99,-99.99,,,-99.99,,2013-10-15 23:03:00,
2013-10-15 18:10:00,49.0,49.0,-100.00,NNE,15,7.0,14.0,99,-99.99,,,-99.99,,2013-10-15 23:10:00,
2013-10-15 18:43:00,49.0,49.0,-100.00,NNE,15,7.0,14.0,99,-99.99,,,-99.99,,2013-10-15 23:43:00,
2013-10-15 18:52:00,49.0,49.0,-100.00,NNE,15,7.0,14.0,99,-99.99,,,-99.99,,2013-10-15 23:52:00,
2013-10-15 19:01:00,49.0,49.0,-100.00,NNE,15,7.0,14.0,99,-99.99,,,-99.99,,2013-10-16 00:01:00,
2013-10-15 19:11:00,49.0,48.0,-100.00,NNE,15,7.0,12.0,99,-99.99,,,-99.99,,2013-10-16 00:11:00,
2013-10-15 19:42:00,49.0,48.0,-100.00,NNE,15,7.0,12.0,99,-99.99,,,-99.99,,2013-10-16 00:42:00,
2013-10-15 19:52:00,49.0,48.0,-100.00,NNE,15,7.0,12.0,99,-99.99,,,-99.99,,2013-10-16 00:52:00,
2013-10-15 20:02:00,49.0,48.0,-100.00,NNE,15,7.0,12.0,99,-99.99,,,-99.99,,2013-10-16 01:02:00,
2013-10-15 20:42:00,48.0,47.0,-100.00,North,0,11.0,22.0,99,-99.99,,,-99.99,,2013-10-16 01:42:00,
2013-10-15 20:52:00,48.0,47.0,-100.00,North,0,11.0,22.0,99,-99.99,,,-99.99,,2013-10-16 01:52:00,
2013-10-15 21:02:00,48.0,47.0,-100.00,North,0,11.0,22.0,99,-99.99,,,-99.99,,2013-10-16 02:02:00,
2013-10-15 21:10:00,46.0,46.0,-100.00,North,0,11.0,22.0,99,-99.99,,,-99.99,,2013-10-16 02:10:00,
2013-10-15 21:42:00,46.0,46.0,-100.00,North,0,11.0,22.0,99,-99.99,,,-99.99,,2013-10-16 02:42:00,
2013-10-15 21:52:00,46.0,46.0,-100.00,North,0,11.0,22.0,99,-99.99,,,-99.99,,2013-10-16 02:52:00,
2013-10-15 22:02:00,46.0,46.0,-100.00,North,0,11.0,22.0,99,-99.99,,,-99.99,,2013-10-16 03:02:00,
2013-10-15 22:10:00,45.0,44.0,-100.00,North,10,12.0,22.0,99,-99.99,,,-99.99,,2013-10-16 03:10:00,
2013-10-15 22:45:00,45.0,44.0,-100.00,North,10,12.0,22.0,99,-99.99,,,-99.99,,2013-10-16 03:45:00,
2013-10-15 22:55:00,45.0,44.0,-100.00,North,10,12.0,22.0,99,-99.99,,,-99.99,,2013-10-16 03:55:00,
2013-10-15 23:04:00,45.0,44.0,-100.00,North,10,12.0,22.0,99,-99.99,,,-99.99,,2013-10-16 04:04:00,
2013-10-15 23:12:00,45.0,44.0,-100.00,NNE,20,9.0,29.0,99,-99.99,,,-99.99,,2013-10-16 04:12:00,
2013-10-15 23:43:00,45.0,44.0,-100.00,NNE,20,9.0,29.0,99,-99.99,,,-99.99,,2013-10-16 04:43:00,
2013-10-15 23:54:00,45.0,44.0,-100.00,NNE,20,9.0,29.0,99,-99.99,,,-99.99,,2013-10-16 04:54:00,